| time (UTC) | temp F | wind direction | speed knots | gust knots | rain 1hr in | rain 24hr in | rain mn in | humidity % | barometer mb |
| 20260503193152 | 63 | 228 | 0.9 | 3.5 | 0.00 | 0.00 | 0.00 | 56 | 1013.1 |
| 20260503192651 | 63 | 250 | 0.9 | 6.1 | 0.00 | 0.00 | 0.00 | 59 | 1013.2 |
| 20260503192150 | 63 | 176 | 0.9 | 6.1 | 0.00 | 0.00 | 0.00 | 59 | 1013.2 |
| 20260503191651 | 63 | 271 | 0.9 | 3.5 | 0.00 | 0.00 | 0.00 | 59 | 1013.3 |
| 20260503191151 | 62 | 266 | 1.7 | 4.3 | 0.00 | 0.00 | 0.00 | 59 | 1013.2 |
| 20260503190650 | 62 | 279 | 0.9 | 4.3 | 0.00 | 0.00 | 0.00 | 59 | 1013.3 |
| 20260503190151 | 62 | 283 | 1.7 | 4.3 | 0.00 | 0.00 | 0.00 | 60 | 1013.3 |
| 20260503185650 | 62 | 298 | 2.6 | 4.3 | 0.00 | 0.00 | 0.00 | 60 | 1013.3 |
| 20260503185149 | 62 | 289 | 0.9 | 3.5 | 0.00 | 0.00 | 0.00 | 62 | 1013.3 |
| 20260503185138 | 62 | 285 | 0.9 | 3.5 | 0.00 | 0.00 | 0.00 | 62 | 1013.3 |
| 20260503184149 | 61 | 290 | 0.0 | 5.2 | 0.00 | 0.00 | 0.00 | 63 | 1013.3 |
| 20260503183650 | 61 | 283 | 2.6 | 5.2 | 0.00 | 0.00 | 0.00 | 61 | 1013.4 |
| 20260503183150 | 61 | 279 | 1.7 | 2.6 | 0.00 | 0.00 | 0.00 | 63 | 1013.4 |
| 20260503182649 | 61 | 195 | 0.0 | 2.6 | 0.00 | 0.00 | 0.00 | 64 | 1013.5 |
| 20260503182149 | 60 | 289 | 0.9 | 3.5 | 0.00 | 0.00 | 0.00 | 64 | 1013.6 |
| 20260503181650 | 60 | 289 | 0.9 | 3.5 | 0.00 | 0.00 | 0.00 | 63 | 1013.5 |
| 20260503181408 | 60 | 290 | 0.9 | 5.2 | 0.00 | 0.00 | 0.00 | 64 | 1013.5 |
| 20260503180648 | 60 | 292 | 2.6 | 5.2 | 0.00 | 0.00 | 0.00 | 64 | 1013.5 |
| 20260503180149 | 60 | 309 | 0.9 | 5.2 | 0.00 | 0.00 | 0.00 | 64 | 1013.5 |
| 20260503175648 | 60 | 309 | 1.7 | 7.8 | 0.00 | 0.00 | 0.00 | 64 | 1013.5 |
| 20260503175149 | 61 | 296 | 2.6 | 7.8 | 0.00 | 0.00 | 0.00 | 64 | 1013.4 |
| 20260503174909 | 61 | 266 | 3.5 | 8.7 | 0.00 | 0.00 | 0.00 | 64 | 1013.4 |
| 20260503174149 | 62 | 281 | 4.3 | 8.7 | 0.00 | 0.00 | 0.00 | 63 | 1013.4 |
| 20260503173648 | 62 | 274 | 2.6 | 5.2 | 0.00 | 0.00 | 0.00 | 64 | 1013.4 |
| 20260503173148 | 61 | 296 | 1.7 | 5.2 | 0.00 | 0.00 | 0.00 | 65 | 1013.3 |
| 20260503172647 | 61 | 290 | 1.7 | 5.2 | 0.00 | 0.00 | 0.00 | 65 | 1013.3 |
| 20260503172148 | 61 | 257 | 1.7 | 4.3 | 0.00 | 0.00 | 0.00 | 65 | 1013.2 |
| 20260503171648 | 61 | 261 | 0.0 | 3.5 | 0.00 | 0.00 | 0.00 | 65 | 1013.2 |
| 20260503171148 | 61 | 266 | 0.0 | 3.5 | 0.00 | 0.00 | 0.00 | 65 | 1013.3 |
| 20260503170648 | 61 | 258 | 0.9 | 3.5 | 0.00 | 0.00 | 0.00 | 64 | 1013.2 |
| 20260503170147 | 61 | 290 | 0.9 | 4.3 | 0.00 | 0.00 | 0.00 | 65 | 1013.2 |
| 20260503160145 | 59 | 145 | 1.7 | 4.3 | 0.00 | 0.00 | 0.00 | 69 | 1013.1 |
| 20260503150912 | 57 | 24 | 0.9 | 2.6 | 0.00 | 0.00 | 0.00 | 72 | 1012.9 |
| 20260503150404 | 57 | 319 | 0.0 | 1.7 | 0.00 | 0.00 | 0.00 | 72 | 1012.9 |
| 20260503140143 | 56 | 259 | 0.0 | 2.6 | 0.00 | 0.00 | 0.00 | 72 | 1012.1 |
| 20260503131141 | 56 | 278 | 0.9 | 2.6 | 0.00 | 0.00 | 0.00 | 72 | 1011.6 |
| 20260503130642 | 56 | 278 | 0.0 | 2.6 | 0.00 | 0.00 | 0.00 | 72 | 1011.6 |
| 20260503130142 | 56 | 278 | 1.7 | 2.6 | 0.00 | 0.00 | 0.00 | 72 | 1011.5 |
| 20260503120141 | 56 | 258 | 0.0 | 3.5 | 0.00 | 0.00 | 0.00 | 72 | 1011.4 |
| 20260503110639 | 56 | 275 | 0.9 | 2.6 | 0.00 | 0.00 | 0.00 | 72 | 1011.5 |
| 20260503110139 | 56 | 275 | 0.9 | 2.6 | 0.00 | 0.00 | 0.00 | 72 | 1011.6 |
| 20260503100138 | 56 | 262 | 1.7 | 3.5 | 0.00 | 0.00 | 0.00 | 71 | 1011.5 |
| 20260503090136 | 56 | 286 | 0.9 | 2.6 | 0.00 | 0.00 | 0.00 | 71 | 1011.6 |
| 20260503081636 | 56 | 266 | 0.9 | 2.6 | 0.00 | 0.00 | 0.00 | 71 | 1012.0 |
| 20260503081135 | 56 | 286 | 0.9 | 2.6 | 0.00 | 0.00 | 0.00 | 72 | 1012.2 |
| 20260503080634 | 56 | 283 | 0.9 | 2.6 | 0.00 | 0.00 | 0.00 | 71 | 1012.1 |
| 20260503080400 | 56 | 300 | 0.0 | 2.6 | 0.00 | 0.00 | 0.00 | 72 | 1012.1 |
| 20260503072634 | 56 | 259 | 0.9 | 2.6 | 0.00 | 0.00 | 0.00 | 71 | 1012.2 |
| 20260503072134 | 56 | 99 | 0.9 | 2.6 | 0.00 | 0.00 | 0.00 | 71 | 1012.3 |
| 20260503071634 | 56 | 82 | 0.0 | 2.6 | 0.00 | 0.00 | 0.00 | 71 | 1012.3 |
| 20260503071134 | 56 | 271 | 0.0 | 3.5 | 0.00 | 0.00 | 0.00 | 71 | 1012.3 |
| 20260503070857 | 56 | 272 | 0.9 | 3.5 | 0.00 | 0.00 | 0.00 | 71 | 1012.3 |
| 20260503070134 | 56 | 258 | 0.9 | 3.5 | 0.00 | 0.00 | 0.00 | 71 | 1012.2 |
| 20260503054633 | 57 | 217 | 0.0 | 2.6 | 0.00 | 0.00 | 0.00 | 71 | 1012.7 |
| 20260503054131 | 57 | 35 | 0.9 | 2.6 | 0.00 | 0.00 | 0.00 | 71 | 1012.7 |
| 20260503053632 | 57 | 276 | 0.0 | 4.3 | 0.00 | 0.00 | 0.00 | 71 | 1012.7 |
| 20260503053131 | 57 | 348 | 0.9 | 4.3 | 0.00 | 0.00 | 0.00 | 71 | 1012.8 |
| 20260503052632 | 57 | 306 | 0.9 | 4.3 | 0.00 | 0.00 | 0.00 | 71 | 1012.8 |
| 20260503052131 | 57 | 272 | 0.9 | 3.5 | 0.00 | 0.00 | 0.00 | 71 | 1012.9 |
| 20260503051632 | 57 | 238 | 0.9 | 3.5 | 0.00 | 0.00 | 0.00 | 71 | 1012.9 |
| 20260503051131 | 57 | 323 | 0.9 | 3.5 | 0.00 | 0.00 | 0.00 | 71 | 1012.8 |
| 20260503050631 | 57 | 173 | 0.0 | 2.6 | 0.00 | 0.00 | 0.00 | 71 | 1012.8 |
| 20260503050131 | 57 | 224 | 0.9 | 3.5 | 0.00 | 0.00 | 0.00 | 71 | 1012.8 |
| 20260503045630 | 57 | 252 | 0.9 | 3.5 | 0.00 | 0.00 | 0.00 | 71 | 1012.7 |
| 20260503045131 | 57 | 250 | 0.9 | 3.5 | 0.00 | 0.00 | 0.00 | 71 | 1012.7 |
| 20260503044630 | 57 | 266 | 1.7 | 5.2 | 0.00 | 0.00 | 0.00 | 71 | 1012.8 |
| 20260503044130 | 57 | 258 | 1.7 | 6.1 | 0.00 | 0.00 | 0.00 | 71 | 1012.7 |
| 20260503043630 | 57 | 241 | 1.7 | 6.1 | 0.00 | 0.00 | 0.00 | 71 | 1012.6 |
| 20260503043130 | 57 | 331 | 0.9 | 3.5 | 0.00 | 0.00 | 0.00 | 71 | 1012.6 |
| 20260503042630 | 57 | 268 | 0.9 | 5.2 | 0.00 | 0.00 | 0.00 | 71 | 1012.4 |
| 20260503042130 | 57 | 257 | 1.7 | 5.2 | 0.00 | 0.00 | 0.00 | 71 | 1012.4 |
| 20260503041856 | 57 | 320 | 1.7 | 4.3 | 0.00 | 0.00 | 0.00 | 71 | 1012.5 |
| 20260503041129 | 57 | 0 | 0.9 | 4.3 | 0.00 | 0.00 | 0.00 | 71 | 1012.3 |
| 20260503040630 | 57 | 247 | 0.9 | 5.2 | 0.00 | 0.00 | 0.00 | 70 | 1012.2 |
| 20260503040129 | 57 | 221 | 0.9 | 5.2 | 0.00 | 0.00 | 0.00 | 70 | 1012.3 |
| 20260503035629 | 57 | 207 | 1.7 | 6.1 | 0.00 | 0.00 | 0.00 | 70 | 1012.3 |
| 20260503035611 | 57 | 157 | 1.7 | 6.1 | 0.00 | 0.00 | 0.00 | 70 | 1012.2 |
| 20260503034629 | 57 | 350 | 0.9 | 7.8 | 0.00 | 0.00 | 0.00 | 70 | 1012.1 |
| 20260503034130 | 57 | 258 | 1.7 | 7.8 | 0.00 | 0.00 | 0.00 | 70 | 1012.1 |
| 20260503033628 | 58 | 176 | 0.9 | 6.1 | 0.00 | 0.00 | 0.00 | 70 | 1012.0 |
| 20260503033129 | 58 | 261 | 2.6 | 6.1 | 0.00 | 0.00 | 0.00 | 70 | 1012.0 |
| 20260503032628 | 58 | 296 | 0.0 | 5.2 | 0.00 | 0.00 | 0.00 | 71 | 1012.0 |
| 20260503032129 | 58 | 264 | 2.6 | 5.2 | 0.00 | 0.00 | 0.00 | 71 | 1011.9 |
| 20260503031628 | 58 | 56 | 1.7 | 4.3 | 0.00 | 0.00 | 0.00 | 71 | 1011.8 |
| 20260503031127 | 58 | 269 | 0.9 | 4.3 | 0.00 | 0.00 | 0.00 | 71 | 1011.8 |
| 20260503030851 | 58 | 262 | 1.7 | 5.2 | 0.00 | 0.00 | 0.00 | 70 | 1011.8 |
| 20260503030726 | 58 | 258 | 0.9 | 5.2 | 0.00 | 0.00 | 0.00 | 71 | 1011.7 |
| 20260503025847 | 58 | 10 | 1.7 | 4.3 | 0.00 | 0.00 | 0.00 | 70 | 1011.7 |
| 20260503025346 | 58 | 299 | 0.9 | 3.5 | 0.00 | 0.00 | 0.00 | 70 | 1011.6 |
| 20260503024628 | 58 | 241 | 0.9 | 4.3 | 0.00 | 0.00 | 0.00 | 70 | 1011.7 |
| 20260503024347 | 58 | 231 | 0.9 | 4.3 | 0.00 | 0.00 | 0.00 | 70 | 1011.5 |
| 20260503023628 | 58 | 49 | 1.7 | 4.3 | 0.00 | 0.00 | 0.00 | 70 | 1011.5 |
| 20260503023127 | 59 | 286 | 0.9 | 4.3 | 0.00 | 0.00 | 0.00 | 69 | 1011.5 |
| 20260503022627 | 59 | 214 | 1.7 | 4.3 | 0.00 | 0.00 | 0.00 | 69 | 1011.4 |
| 20260503022353 | 59 | 30 | 0.9 | 5.2 | 0.00 | 0.00 | 0.00 | 69 | 1011.4 |
| 20260503021854 | 59 | 165 | 1.7 | 6.1 | 0.00 | 0.00 | 0.00 | 69 | 1011.4 |
| 20260503021128 | 59 | 123 | 2.6 | 6.1 | 0.00 | 0.00 | 0.00 | 68 | 1011.4 |
| 20260503020844 | 60 | 355 | 1.7 | 8.7 | 0.00 | 0.00 | 0.00 | 68 | 1011.4 |
| 20260503020126 | 60 | 144 | 2.6 | 8.7 | 0.00 | 0.00 | 0.00 | 68 | 1011.4 |
| 20260503015626 | 60 | 140 | 1.7 | 7.8 | 0.00 | 0.00 | 0.00 | 67 | 1011.3 |
| 20260503015126 | 60 | 0 | 1.7 | 6.1 | 0.00 | 0.00 | 0.00 | 67 | 1011.4 |
| 20260503014627 | 61 | 120 | 1.7 | 6.1 | 0.00 | 0.00 | 0.00 | 67 | 1011.4 |
| 20260503014126 | 61 | 289 | 0.9 | 9.6 | 0.00 | 0.00 | 0.00 | 67 | 1011.4 |
| 20260503013626 | 61 | 334 | 0.9 | 9.6 | 0.00 | 0.00 | 0.00 | 67 | 1011.5 |
| 20260503013349 | 61 | 35 | 1.7 | 7.8 | 0.00 | 0.00 | 0.00 | 67 | 1011.4 |
| 20260503012626 | 61 | 234 | 1.7 | 5.2 | 0.00 | 0.00 | 0.00 | 67 | 1011.5 |
| 20260503012349 | 61 | 202 | 0.9 | 5.2 | 0.00 | 0.00 | 0.00 | 66 | 1011.4 |
| 20260503011843 | 61 | 289 | 2.6 | 6.1 | 0.00 | 0.00 | 0.00 | 66 | 1011.4 |
| 20260503011125 | 61 | 231 | 2.6 | 6.1 | 0.00 | 0.00 | 0.00 | 66 | 1011.5 |
| 20260503010626 | 61 | 221 | 1.7 | 7.8 | 0.00 | 0.00 | 0.00 | 66 | 1011.5 |
| 20260503010125 | 61 | 258 | 1.7 | 7.8 | 0.00 | 0.00 | 0.00 | 66 | 1011.4 |
| 20260503005624 | 62 | 169 | 1.7 | 7.8 | 0.00 | 0.00 | 0.00 | 66 | 1011.4 |
| 20260503005125 | 62 | 265 | 1.7 | 6.1 | 0.00 | 0.00 | 0.00 | 66 | 1011.3 |
| 20260503004625 | 62 | 268 | 1.7 | 6.1 | 0.00 | 0.00 | 0.00 | 66 | 1011.4 |
| 20260503004125 | 62 | 230 | 1.7 | 6.1 | 0.00 | 0.00 | 0.00 | 66 | 1011.4 |
| 20260503003624 | 62 | 245 | 1.7 | 5.2 | 0.00 | 0.00 | 0.00 | 66 | 1011.5 |
| 20260503003349 | 62 | 281 | 1.7 | 5.2 | 0.00 | 0.00 | 0.00 | 65 | 1011.5 |
| 20260503002849 | 62 | 274 | 1.7 | 6.1 | 0.00 | 0.00 | 0.00 | 65 | 1011.5 |
| 20260503002347 | 62 | 247 | 2.6 | 6.1 | 0.00 | 0.00 | 0.00 | 65 | 1011.5 |
| 20260503001845 | 63 | 258 | 2.6 | 7.8 | 0.00 | 0.00 | 0.00 | 64 | 1011.6 |
| 20260503001125 | 63 | 310 | 2.6 | 7.8 | 0.00 | 0.00 | 0.00 | 64 | 1011.5 |
| 20260503000842 | 63 | 296 | 1.7 | 7.8 | 0.00 | 0.00 | 0.00 | 64 | 1011.5 |
| 20260503000123 | 63 | 272 | 1.7 | 5.2 | 0.00 | 0.00 | 0.00 | 64 | 1011.5 |
| 20260502235850 | 63 | 312 | 1.7 | 7.8 | 0.00 | 0.00 | 0.00 | 64 | 1011.6 |
| 20260502235123 | 64 | 241 | 2.6 | 7.8 | 0.00 | 0.00 | 0.00 | 63 | 1011.6 |
| 20260502234624 | 64 | 290 | 1.7 | 5.2 | 0.00 | 0.00 | 0.00 | 64 | 1011.5 |
| 20260502234123 | 64 | 250 | 2.6 | 8.7 | 0.00 | 0.00 | 0.00 | 63 | 1011.6 |
| 20260502233623 | 64 | 272 | 3.5 | 8.7 | 0.00 | 0.00 | 0.00 | 62 | 1011.5 |
| 20260502233122 | 64 | 0 | 1.7 | 6.1 | 0.00 | 0.00 | 0.00 | 62 | 1011.6 |
| 20260502232623 | 64 | 268 | 1.7 | 7.8 | 0.00 | 0.00 | 0.00 | 62 | 1011.6 |
| 20260502232122 | 65 | 258 | 2.6 | 8.7 | 0.00 | 0.00 | 0.00 | 61 | 1011.7 |
| 20260502231848 | 65 | 237 | 1.7 | 8.7 | 0.00 | 0.00 | 0.00 | 61 | 1011.7 |
| 20260502231123 | 65 | 262 | 1.7 | 8.7 | 0.00 | 0.00 | 0.00 | 62 | 1011.8 |
| 20260502230623 | 65 | 272 | 2.6 | 7.8 | 0.00 | 0.00 | 0.00 | 62 | 1011.8 |
| 20260502230123 | 65 | 159 | 2.6 | 8.7 | 0.00 | 0.00 | 0.00 | 62 | 1011.8 |
| 20260502225622 | 65 | 292 | 2.6 | 8.7 | 0.00 | 0.00 | 0.00 | 61 | 1011.9 |
| 20260502225343 | 65 | 155 | 2.6 | 8.7 | 0.00 | 0.00 | 0.00 | 61 | 1011.9 |
| 20260502224622 | 66 | 237 | 2.6 | 8.7 | 0.00 | 0.00 | 0.00 | 61 | 1012.0 |
| 20260502224121 | 66 | 31 | 3.5 | 7.8 | 0.00 | 0.00 | 0.00 | 61 | 1012.1 |
| 20260502223622 | 66 | 312 | 2.6 | 7.8 | 0.00 | 0.00 | 0.00 | 61 | 1012.1 |
| 20260502223121 | 66 | 44 | 2.6 | 7.8 | 0.00 | 0.00 | 0.00 | 60 | 1012.1 |
| 20260502222621 | 67 | 268 | 3.5 | 7.8 | 0.00 | 0.00 | 0.00 | 60 | 1012.2 |
| 20260502222122 | 67 | 204 | 1.7 | 6.1 | 0.00 | 0.00 | 0.00 | 60 | 1012.4 |
| 20260502221621 | 67 | 289 | 1.7 | 4.3 | 0.00 | 0.00 | 0.00 | 60 | 1012.4 |
| 20260502221121 | 67 | 16 | 0.9 | 5.2 | 0.00 | 0.00 | 0.00 | 60 | 1012.4 |
| 20260502220621 | 67 | 180 | 1.7 | 5.2 | 0.00 | 0.00 | 0.00 | 60 | 1012.5 |
| 20260502220602 | 67 | 226 | 1.7 | 5.2 | 0.00 | 0.00 | 0.00 | 60 | 1012.5 |
| 20260502215621 | 67 | 116 | 1.7 | 5.2 | 0.00 | 0.00 | 0.00 | 61 | 1012.6 |
| 20260502215121 | 67 | 103 | 0.9 | 6.1 | 0.00 | 0.00 | 0.00 | 60 | 1012.6 |
| 20260502214621 | 67 | 258 | 2.6 | 6.1 | 0.00 | 0.00 | 0.00 | 61 | 1012.7 |
| 20260502214120 | 67 | 51 | 2.6 | 6.1 | 0.00 | 0.00 | 0.00 | 59 | 1012.7 |
| 20260502213621 | 68 | 65 | 1.7 | 6.1 | 0.00 | 0.00 | 0.00 | 62 | 1012.6 |
| 20260502213343 | 68 | 24 | 1.7 | 6.1 | 0.00 | 0.00 | 0.00 | 60 | 1012.7 |
| 20260502212841 | 68 | 210 | 2.6 | 6.1 | 0.00 | 0.00 | 0.00 | 60 | 1012.7 |
| 20260502212120 | 67 | 298 | 1.7 | 6.1 | 0.00 | 0.00 | 0.00 | 61 | 1012.7 |
| 20260502211620 | 67 | 65 | 1.7 | 6.1 | 0.00 | 0.00 | 0.00 | 61 | 1012.8 |
| 20260502211341 | 67 | 266 | 2.6 | 6.1 | 0.00 | 0.00 | 0.00 | 61 | 1012.9 |
| 20260502210620 | 68 | 226 | 1.7 | 5.2 | 0.00 | 0.00 | 0.00 | 58 | 1012.9 |
| 20260502210119 | 68 | 96 | 1.7 | 5.2 | 0.00 | 0.00 | 0.00 | 60 | 1012.9 |
| 20260502205619 | 68 | 152 | 1.7 | 5.2 | 0.00 | 0.00 | 0.00 | 59 | 1013.0 |
| 20260502205120 | 68 | 290 | 1.7 | 6.1 | 0.00 | 0.00 | 0.00 | 60 | 1013.2 |
| 20260502204619 | 68 | 14 | 1.7 | 6.1 | 0.00 | 0.00 | 0.00 | 59 | 1013.2 |
| 20260502204120 | 67 | 17 | 1.7 | 6.1 | 0.00 | 0.00 | 0.00 | 60 | 1013.3 |
| 20260502203619 | 68 | 47 | 1.7 | 4.3 | 0.00 | 0.00 | 0.00 | 57 | 1013.3 |
| 20260502203118 | 69 | 337 | 0.9 | 3.5 | 0.00 | 0.00 | 0.00 | 57 | 1013.3 |
| 20260502202837 | 68 | 65 | 2.6 | 5.2 | 0.00 | 0.00 | 0.00 | 57 | 1013.2 |
| 20260502202118 | 69 | 61 | 1.7 | 5.2 | 0.00 | 0.00 | 0.00 | 58 | 1013.4 |
| 20260502201619 | 68 | 151 | 0.9 | 3.5 | 0.00 | 0.00 | 0.00 | 58 | 1013.5 |
| 20260502201118 | 69 | 213 | 0.9 | 3.5 | 0.00 | 0.00 | 0.00 | 60 | 1013.7 |
| 20260502200618 | 67 | 230 | 0.9 | 2.6 | 0.00 | 0.00 | 0.00 | 59 | 1013.7 |
| 20260502200117 | 68 | 178 | 0.9 | 2.6 | 0.00 | 0.00 | 0.00 | 57 | 1013.8 |
| 20260502195618 | 67 | 68 | 0.0 | 2.6 | 0.00 | 0.00 | 0.00 | 60 | 1013.8 |
| 20260502195119 | 67 | 69 | 0.9 | 2.6 | 0.00 | 0.00 | 0.00 | 59 | 1013.8 |
| 20260502194617 | 68 | 137 | 0.9 | 3.5 | 0.00 | 0.00 | 0.00 | 60 | 1013.9 |
| 20260502194117 | 68 | 76 | 0.9 | 3.5 | 0.00 | 0.00 | 0.00 | 62 | 1014.0 |
| 20260502194108 | 67 | 92 | 0.0 | 2.6 | 0.00 | 0.00 | 0.00 | 62 | 1013.9 |